DW8502 Weather Reports


time (UTC)temp
C
wind
direction
speed
KPH
gust
KPH
rain 1hr
cm
rain 24hr
cm
rain mn
cm
humidity
%
barometer
mb
20260505025124 13 254 0.0 3.2 0.00 0.00 0.00 73 1009.5
20260505024224 13 255 1.6 4.8 0.00 0.00 0.00 73 1009.6
20260505023324 13 259 1.6 4.8 0.00 0.00 0.00 72 1009.6
20260505022424 13 269 1.6 6.4 0.00 0.00 0.00 71 1009.6
20260505021524 13 247 1.6 4.8 0.00 0.00 0.00 71 1009.7
20260505020624 13 235 0.0 4.8 0.00 0.00 0.00 70 1009.6
20260505015724 13 237 0.0 3.2 0.00 0.00 0.00 69 1009.5
20260505014824 13 240 1.6 4.8 0.00 0.00 0.00 68 1009.5
20260505013924 13 239 0.0 4.8 0.00 0.00 0.00 68 1009.5
20260505013024 14 239 1.6 4.8 0.00 0.00 0.00 66 1009.5
20260505011224 15 236 0.0 3.2 0.00 0.00 0.00 64 1009.2
20260505010324 15 234 1.6 6.4 0.00 0.00 0.00 62 1009.0
20260505004524 15 252 3.2 9.7 0.00 0.00 0.00 61 1008.7
20260505002724 15 253 3.2 6.4 0.00 0.00 0.00 60 1008.2
20260505001824 16 246 3.2 8.0 0.00 0.00 0.00 59 1008.0
20260505000924 16 248 3.2 9.7 0.00 0.00 0.00 59 1007.8
20260505000024 16 244 3.2 8.0 0.00 0.00 0.00 58 1007.6
20260504235124 16 245 3.2 9.7 0.00 0.00 0.00 58 1007.4
20260504234224 16 235 3.2 9.7 0.00 0.00 0.00 57 1007.3
20260504233324 17 239 3.2 8.0 0.00 0.00 0.00 56 1007.2
20260504232424 17 252 3.2 8.0 0.00 0.00 0.00 56 1007.0
20260504231524 17 263 4.8 11.3 0.00 0.00 0.00 55 1007.0
20260504230624 17 254 4.8 11.3 0.00 0.00 0.00 55 1006.8
20260504225724 18 244 3.2 14.5 0.00 0.00 0.00 55 1006.7
20260504224824 18 250 3.2 8.0 0.00 0.00 0.00 54 1006.5
20260504223924 18 247 4.8 12.9 0.00 0.00 0.00 54 1006.5
20260504223024 18 259 6.4 14.5 0.00 0.00 0.00 53 1006.3
20260504222124 19 250 3.2 11.3 0.00 0.00 0.00 51 1006.3
20260504221224 19 247 4.8 14.5 0.00 0.00 0.00 50 1006.2
20260504220324 20 250 3.2 11.3 0.00 0.00 0.00 49 1006.2
20260504215424 20 254 3.2 11.3 0.00 0.00 0.00 48 1006.2
20260504214524 20 256 4.8 14.5 0.00 0.00 0.00 47 1006.1
20260504211824 21 243 3.2 11.3 0.00 0.00 0.00 44 1005.9
20260504210924 21 263 3.2 11.3 0.00 0.00 0.00 43 1005.8
20260504210024 21 251 4.8 11.3 0.00 0.00 0.00 41 1005.8
20260504205124 22 275 6.4 12.9 0.00 0.00 0.00 40 1005.7
20260504204224 22 258 3.2 12.9 0.00 0.00 0.00 40 1005.8
20260504203324 22 245 3.2 12.9 0.00 0.00 0.00 39 1005.8
20260504202424 22 272 4.8 12.9 0.00 0.00 0.00 39 1005.9
20260504201524 22 249 6.4 16.1 0.00 0.00 0.00 37 1005.9
20260504200624 23 264 4.8 12.9 0.00 0.00 0.00 39 1006.0
20260504194824 22 270 6.4 16.1 0.00 0.00 0.00 38 1006.1
20260504193924 22 292 4.8 16.1 0.00 0.00 0.00 37 1006.1
20260504193025 22 275 6.4 12.9 0.00 0.00 0.00 36 1006.0
20260504192124 23 281 4.8 11.3 0.00 0.00 0.00 37 1006.1
20260504191224 23 243 3.2 11.3 0.00 0.00 0.00 38 1006.0
20260504190324 23 276 4.8 11.3 0.00 0.00 0.00 37 1006.0
20260504185424 22 267 4.8 12.9 0.00 0.00 0.00 36 1006.2
20260504184524 22 250 4.8 12.9 0.00 0.00 0.00 36 1006.2
20260504183624 22 281 4.8 12.9 0.00 0.00 0.00 39 1006.3
20260504182724 22 273 6.4 14.5 0.00 0.00 0.00 37 1006.4
20260504180024 22 281 6.4 12.9 0.00 0.00 0.00 37 1006.7
20260504175124 22 274 6.4 14.5 0.00 0.00 0.00 37 1006.9
20260504174224 22 265 4.8 11.3 0.00 0.00 0.00 39 1006.9
20260504172424 21 256 6.4 14.5 0.00 0.00 0.00 38 1006.8
20260504171523 21 267 6.4 12.9 0.00 0.00 0.00 39 1006.8
20260504170624 21 264 6.4 16.1 0.00 0.00 0.00 39 1007.0
20260504160324 20 276 8.0 16.1 0.00 0.00 0.00 41 1007.9
20260504140623 17 291 3.2 9.7 0.00 0.00 0.00 47 1009.0
20260504130323 15 249 3.2 9.7 0.00 0.00 0.00 54 1009.7
20260504110623 8 279 0.0 3.2 0.00 0.00 0.00 70 1009.9
20260504100323 7 0 0.0 0.0 0.00 0.00 0.00 71 1009.9
20260504081523 6 0 0.0 0.0 0.00 0.00 0.00 71 1009.5
20260504070323 5 0 0.0 0.0 0.00 0.00 0.00 77 1009.4
20260504050623 5 0 0.0 0.0 0.00 0.00 0.00 76 1009.5
20260504045723 5 0 0.0 0.0 0.00 0.00 0.00 78 1009.6
20260504043923 5 0 0.0 0.0 0.00 0.00 0.00 76 1009.5
20260504043023 5 0 0.0 0.0 0.00 0.00 0.00 74 1009.6
20260504042124 5 0 0.0 0.0 0.00 0.00 0.00 71 1009.5
20260504041223 5 0 0.0 0.0 0.00 0.00 0.00 71 1009.4
20260504035423 5 0 0.0 0.0 0.00 0.00 0.00 68 1009.2
20260504034523 5 0 0.0 0.0 0.00 0.00 0.00 68 1009.2
20260504033623 5 0 0.0 0.0 0.00 0.00 0.00 69 1009.1
20260504031823 4 322 0.0 4.8 0.00 0.00 0.00 76 1009.0
20260504030023 3 0 0.0 0.0 0.00 0.00 0.00 79 1008.9